Regional Weather Roundup
Issued by NWS Charleston, WV

Home | Current Version | Previous Version | Graphics & Text | Print | Product List | Glossary On
Versions: 1 2 3 4 5 6 7 8 9 10 11 12 13 14 15 16 17 18 19 20 21 22 23 24 25 26 27 28 29 30 31 32 33 34 35 36 37 38 39 40 41 42 43 44 45 46 47 48 49 50
000
ASUS41 KRLX 280710
RWRRLX
West Virginia Regional Weather Roundup
National Weather Service Charleston WV
300 AM EDT FRI AUG 28 2015

Note: "fair" indicates few or no clouds below 12,000 feet with no
significant weather and/or obstructions to visibility.

WVZ003-280800-
Northern Panhandle of West Virginia

CITY           SKY/WX    TMP DP  RH WIND       PRES   REMARKS
WHEELING       CLEAR     57  55  93 CALM      30.18S FOG
$$

WVZ009-280800-
Northwest West Virginia

CITY           SKY/WX    TMP DP  RH WIND       PRES   REMARKS
PARKERSBURG    FOG       54  53  97 CALM      30.18S VSB 1/4
$$

WVZ006-280800-
Western West Virginia

CITY           SKY/WX    TMP DP  RH WIND       PRES   REMARKS
HUNTINGTON     CLEAR     55  55 100 CALM      30.13F FOG
$$

WVZ015-280800-
West Central West Virginia

CITY           SKY/WX    TMP DP  RH WIND       PRES   REMARKS
CHARLESTON     PTCLDY    55  54  96 CALM      30.14F FOG
$$

WVZ022-031-280800-
North Central West Virginia

CITY           SKY/WX    TMP DP  RH WIND       PRES   REMARKS
CLARKSBURG     CLEAR     54  52  93 CALM      30.17F FOG
MORGANTOWN     CLEAR     58  52  80 CALM      30.19F
$$

WVZ025-035-042-045-280800-
Southern West Virginia

CITY           SKY/WX    TMP DP  RH WIND       PRES   REMARKS
BECKLEY        CLEAR     56  52  86 CALM      30.19F
LOGAN          NOT AVBL
BLUEFIELD      CLEAR     60  54  80 SE5       30.20F
LEWISBURG      CLEAR     55  53  92 NE3       30.20S
$$

WVZ047-280800-
Northern Mountains of West Virginia

CITY           SKY/WX    TMP DP  RH WIND       PRES   REMARKS
ELKINS         CLEAR     50  48  93 CALM      30.21F
$$

WVZ052-280800-
Eastern Panhandle of West Virginia

CITY           SKY/WX    TMP DP  RH WIND       PRES   REMARKS
MARTINSBURG    CLEAR     54  52  93 CALM      30.17F FOG
PETERSBURG     CLOUDY    56  55  96 CALM      30.19F
$$


USA.gov is the U.S. government's official web portal to all federal, state and local government web resources and services.